Location: Brodeslavy
(49.9527°N, 13.5567°E)
Time: 04:05:02
(UTC+00:00)

Cosmos 1802 Rocket - Pass Details

Date: 17 June 2025
Orbit: 954 x 1010 km, 82.9° (Epoch: 12 July)

Event Time Altitude Azimuth Distance (km) Brightness Sun altitude
Rises 20:15:27 0° 350° (N) 3,757 8.3 -7.4°
Reaches altitude 10° 20:18:00 10° 351° (N) 2,802 7.5 -7.7°
Maximum altitude 20:24:29 83° 81° (E) 1,020 4.1 -8.3°
Drops below altitude 10° 20:30:52 10° 169° (S) 2,764 5.8 -8.9°
Enters shadow 20:31:27 - 170° (S) 2,978 6.0 -9.0°
